Mora, MN

9:03 AM CDT on August 29, 2016 (GMT -0500)
Mora Municipal

Weather History for KJMR - November, 2011

Change the Weather History Date:

Sunday, November 6, 2011

  Actual Average Record
Temperature  
Mean Temperature 44 °F -  
Max Temperature 50 °F 45 °F 71 °F (2001)
Min Temperature 39 °F 23 °F -5 °F (1951)
Degree Days  
Heating Degree Days 20    
Moisture  
Dew Point 37 °F    
Average Humidity 71    
Maximum Humidity 87    
Minimum Humidity 53    
Precipitation  
Precipitation 0.00 in - - ()
Sea Level Pressure  
Sea Level Pressure 29.66 in    
Wind  
Wind Speed 12 mph (SSW)    
Max Wind Speed 22 mph    
Max Gust Speed 30 mph    
Visibility 9 miles    
Events Rain    
Averages and records for this station are not official NWS values.
T = Trace of Precipitation, MM = Missing Value Source: NWS Daily Summary

Daily Weather History Graph

Daily Weather History Graph

Search for Another Location

Airport or City:

Trip Planner

Search our weather history database for the weather conditions in past years. The results will help you decide how hot, cold, wet, or windy it might be!

Date:

Astronomy

Nov. 06, 2011 Rise Set
Actual Time 7:00 AM CST 4:52 PM CST
Civil Twilight 6:28 AM CST 5:24 PM CST
Nautical Twilight 5:53 AM CST 5:59 PM CST
Astronomical Twilight 5:18 AM CST 6:34 PM CST
Moon 2:45 PM CST (11/6) 2:56 AM CST (11/6)
Length of Visible Light 10h 55m
Length of Day
9h 52m
Waxing Gibbous, 86% of the Moon is Illuminated
Nov 6
Waxing Gibbous
Nov 10
Full
Nov 18
Last Quarter
Nov 25
New
Dec 2
First Quarter

Hourly Weather History & Observations

Time (CST) Temp. Windchill Dew Point Humidity Pressure Visibility Wind Dir Wind Speed Gust Speed Precip Events Conditions
12:15 AM 44.6 °F 39.2 °F 37.4 °F 76% 29.73 in 10.0 mi South 10.4 mph - N/A   Overcast
12:35 AM 44.6 °F 39.7 °F 37.4 °F 76% 29.73 in 10.0 mi South 9.2 mph - N/A   Overcast
12:54 AM 44.6 °F 39.7 °F 37.4 °F 76% 29.72 in 7.0 mi SSE 9.2 mph - N/A   Overcast
1:15 AM 44.6 °F 40.2 °F 39.2 °F 81% 29.71 in 7.0 mi South 8.1 mph - N/A   Overcast
1:34 AM 44.6 °F 39.7 °F 39.2 °F 81% 29.70 in 7.0 mi SSE 9.2 mph - N/A   Mostly Cloudy
1:55 AM 44.6 °F 40.7 °F 39.2 °F 81% 29.69 in 7.0 mi SSE 6.9 mph - N/A   Scattered Clouds
1:15 AM 44.6 °F 39.7 °F 39.2 °F 81% 29.68 in 7.0 mi SSE 9.2 mph - N/A   Clear
1:35 AM 44.6 °F 40.2 °F 39.2 °F 81% 29.68 in 7.0 mi SSE 8.1 mph 16.1 mph N/A   Clear
1:54 AM 44.6 °F 40.2 °F 39.2 °F 81% 29.68 in 10.0 mi South 8.1 mph - N/A   Mostly Cloudy
2:15 AM 46.4 °F 42.4 °F 41.0 °F 81% 29.68 in 7.0 mi SSE 8.1 mph - N/A   Overcast
2:35 AM 46.4 °F 41.9 °F 41.0 °F 81% 29.66 in 10.0 mi SSE 9.2 mph - N/A   Scattered Clouds
2:54 AM 46.4 °F 41.5 °F 41.0 °F 81% 29.65 in 10.0 mi SSE 10.4 mph 16.1 mph N/A   Clear
3:15 AM 48.2 °F - 41.0 °F 76% 29.65 in 10.0 mi SSE 10.4 mph 16.1 mph N/A   Mostly Cloudy
3:34 AM 44.6 °F 40.2 °F 41.0 °F 87% 29.63 in 7.0 mi SSE 8.1 mph - N/A Rain Light Rain
3:55 AM 44.6 °F 39.7 °F 39.2 °F 81% 29.63 in 7.0 mi South 9.2 mph 17.3 mph N/A   Overcast
4:15 AM 44.6 °F 38.8 °F 39.2 °F 81% 29.62 in 7.0 mi South 11.5 mph 18.4 mph N/A   Mostly Cloudy
4:34 AM 44.6 °F 39.7 °F 41.0 °F 87% 29.62 in 7.0 mi SSE 9.2 mph - N/A   Scattered Clouds
4:55 AM 44.6 °F 39.7 °F 39.2 °F 81% 29.60 in 7.0 mi SSE 9.2 mph 18.4 mph N/A   Mostly Cloudy
5:15 AM 44.6 °F 38.4 °F 39.2 °F 81% 29.60 in 7.0 mi SSE 12.7 mph 17.3 mph N/A   Mostly Cloudy
5:34 AM 44.6 °F 38.8 °F 39.2 °F 81% 29.60 in 7.0 mi South 11.5 mph 17.3 mph N/A   Mostly Cloudy
6:15 AM 44.6 °F 39.2 °F 39.2 °F 81% 29.58 in 10.0 mi SSE 10.4 mph - N/A   Overcast
6:34 AM 44.6 °F 38.8 °F 39.2 °F 81% 29.58 in 10.0 mi South 11.5 mph 18.4 mph N/A   Overcast
6:55 AM 44.6 °F 39.7 °F 39.2 °F 81% 29.58 in 10.0 mi SSE 9.2 mph 16.1 mph N/A   Overcast
7:14 AM 46.4 °F 40.7 °F 41.0 °F 81% 29.58 in 10.0 mi SSE 12.7 mph 20.7 mph N/A   Overcast
7:35 AM 46.4 °F 40.4 °F 41.0 °F 81% 29.57 in 10.0 mi SSE 13.8 mph 18.4 mph N/A   Overcast
7:54 AM 46.4 °F 40.1 °F 41.0 °F 81% 29.57 in 10.0 mi South 15.0 mph 19.6 mph N/A   Overcast
8:15 AM 48.2 °F - 41.0 °F 76% 29.56 in 10.0 mi South 17.3 mph 25.3 mph N/A   Overcast
8:34 AM 48.2 °F - 41.0 °F 76% 29.55 in 10.0 mi South 13.8 mph 19.6 mph N/A   Overcast
8:55 AM 48.2 °F - 41.0 °F 76% 29.55 in 10.0 mi South 16.1 mph 23.0 mph N/A   Overcast
9:14 AM 48.2 °F - 41.0 °F 76% 29.55 in 10.0 mi South 17.3 mph 20.7 mph N/A   Overcast
9:35 AM 50.0 °F - 42.8 °F 76% 29.55 in 10.0 mi South 13.8 mph 21.9 mph N/A   Overcast
9:54 AM 50.0 °F - 42.8 °F 76% 29.55 in 10.0 mi South 17.3 mph 23.0 mph N/A   Overcast
10:14 AM 50.0 °F - 42.8 °F 76% 29.55 in 10.0 mi South 13.8 mph - N/A   Overcast
10:34 AM 50.0 °F - 42.8 °F 76% 29.56 in 10.0 mi SSW 16.1 mph 27.6 mph N/A   Overcast
10:55 AM 50.0 °F - 41.0 °F 71% 29.57 in 10.0 mi SSW 16.1 mph 25.3 mph N/A   Overcast
11:15 AM 50.0 °F - 41.0 °F 71% 29.57 in 10.0 mi SW 13.8 mph 20.7 mph N/A   Overcast
11:34 AM 50.0 °F - 41.0 °F 71% 29.56 in 10.0 mi SW 18.4 mph 26.5 mph N/A   Overcast
11:55 AM 50.0 °F - 41.0 °F 71% 29.56 in 10.0 mi SW 13.8 mph 21.9 mph N/A   Overcast
12:14 PM 50.0 °F - 41.0 °F 71% 29.57 in 10.0 mi SW 15.0 mph 20.7 mph N/A   Overcast
12:34 PM 50.0 °F - 41.0 °F 71% 29.58 in 10.0 mi WSW 20.7 mph 27.6 mph N/A   Overcast
12:55 PM 48.2 °F - 35.6 °F 62% 29.60 in 10.0 mi SW 17.3 mph 26.5 mph N/A   Overcast
1:15 PM 44.6 °F 36.1 °F 33.8 °F 66% 29.62 in 10.0 mi WSW 21.9 mph 28.8 mph N/A   Overcast
1:34 PM 44.6 °F 36.6 °F 33.8 °F 66% 29.64 in 10.0 mi WSW 19.6 mph 29.9 mph N/A   Overcast
1:55 PM 44.6 °F 36.1 °F 33.8 °F 66% 29.66 in 10.0 mi SW 21.9 mph 29.9 mph N/A   Overcast
2:15 PM 44.6 °F 36.6 °F 33.8 °F 66% 29.67 in 10.0 mi WSW 19.6 mph 26.5 mph N/A   Overcast
2:35 PM 44.6 °F 37.8 °F 32.0 °F 61% 29.68 in 10.0 mi SW 15.0 mph 24.2 mph N/A   Overcast
2:54 PM 44.6 °F 37.8 °F 32.0 °F 61% 29.69 in 10.0 mi WSW 15.0 mph 20.7 mph N/A   Overcast
3:15 PM 44.6 °F 38.1 °F 32.0 °F 61% 29.69 in 10.0 mi WSW 13.8 mph 20.7 mph N/A   Mostly Cloudy
3:34 PM 46.4 °F 39.0 °F 30.2 °F 53% 29.69 in 10.0 mi WSW 19.6 mph 26.5 mph N/A   Mostly Cloudy
3:55 PM 44.6 °F 38.4 °F 30.2 °F 57% 29.70 in 10.0 mi WSW 12.7 mph 23.0 mph N/A   Scattered Clouds
4:15 PM 44.6 °F 38.1 °F 28.4 °F 53% 29.71 in 10.0 mi SW 13.8 mph 20.7 mph N/A   Clear
4:35 PM 44.6 °F 37.4 °F 30.2 °F 57% 29.72 in 10.0 mi SW 16.1 mph 23.0 mph N/A   Clear
4:54 PM 44.6 °F 38.8 °F 30.2 °F 57% 29.74 in 10.0 mi SW 11.5 mph 19.6 mph N/A   Clear
5:15 PM 44.6 °F 37.8 °F 30.2 °F 57% 29.76 in 10.0 mi WSW 15.0 mph 23.0 mph N/A   Clear
5:35 PM 44.6 °F 38.8 °F 30.2 °F 57% 29.77 in 10.0 mi WSW 11.5 mph 17.3 mph N/A   Scattered Clouds
5:55 PM 42.8 °F 37.0 °F 28.4 °F 57% 29.79 in 10.0 mi WSW 10.4 mph 19.6 mph N/A   Mostly Cloudy
6:14 PM 42.8 °F 37.0 °F 28.4 °F 57% 29.79 in 10.0 mi WSW 10.4 mph 16.1 mph N/A   Overcast
6:35 PM 44.6 °F 40.2 °F 30.2 °F 57% 29.80 in 10.0 mi SW 8.1 mph 16.1 mph N/A   Overcast
6:54 PM 42.8 °F 37.5 °F 28.4 °F 57% 29.81 in 10.0 mi SW 9.2 mph - N/A   Overcast
7:15 PM 42.8 °F 37.0 °F 28.4 °F 57% 29.82 in 10.0 mi SW 10.4 mph 17.3 mph N/A   Scattered Clouds
7:35 PM 41.0 °F 34.7 °F 26.6 °F 57% 29.82 in 10.0 mi SW 10.4 mph - N/A   Clear
7:54 PM 39.2 °F 32.5 °F 26.6 °F 61% 29.83 in 10.0 mi SW 10.4 mph - N/A   Clear
8:15 PM 39.2 °F 33.0 °F 26.6 °F 61% 29.84 in 10.0 mi SSW 9.2 mph - N/A   Clear
8:35 PM 39.2 °F 31.6 °F 26.6 °F 61% 29.85 in 10.0 mi SSW 12.7 mph 20.7 mph N/A   Clear
9:15 PM 39.2 °F 31.6 °F 26.6 °F 61% 29.86 in 10.0 mi SSW 12.7 mph 17.3 mph N/A   Clear
9:35 PM 39.2 °F 31.6 °F 26.6 °F 61% 29.87 in 10.0 mi SW 12.7 mph 16.1 mph N/A   Clear
9:54 PM 39.2 °F 31.2 °F 24.8 °F 56% 29.87 in 10.0 mi SW 13.8 mph - N/A   Clear
10:15 PM 39.2 °F 30.8 °F 23.0 °F 52% 29.88 in 10.0 mi SW 15.0 mph 18.4 mph N/A   Clear
10:35 PM 39.2 °F 32.0 °F 23.0 °F 52% 29.88 in 10.0 mi SW 11.5 mph 17.3 mph N/A   Clear
10:55 PM 39.2 °F 32.5 °F 23.0 °F 52% 29.89 in 10.0 mi SW 10.4 mph 18.4 mph N/A   Clear